{"data":{"norad_id":59646,"epoch":"2026-05-25T03:13:00.338880Z","epoch_age_seconds":70308,"freshness":"FRESH","line1":"1 59646U 24082R   26145.13403170  .00001908  00000+0  78824-4 0  9993","line2":"2 59646  43.0022  68.0430 0001077 264.6614  95.4115 15.27586402116663","mean_motion":15.27586402,"eccentricity":0.0001077,"inclination_deg":43.0022,"raan_deg":68.043,"arg_perigee_deg":264.6614,"mean_anomaly_deg":95.4115,"bstar":7.8824e-5,"rev_number":11666,"period_min":94.26635364878,"perigee_km":482.29097853754,"apogee_km":483.76887389345,"semimajor_km":6861.1669262155,"source":"CELESTRAK","updated_at":"2026-05-25T13:38:19.015943Z"}}